sat.trackr.live / text

‹ back to catalog

USA 157 (MILSTAR-2 2)

NORAD 26715 · 2001-009A

PAYLOAD ACTIVE UNKNOWN

§ Identity

Operator
Country
US
Launch date
2001-02-27
Launch site
AFETR
Launch vehicle
Mass (kg)
RCS (m²)

Purposes: comms

External: N2YO · Heavens-Above · Gunter

§ Orbital elements

Epoch: 2026-09-10T05:11:13.198272Z

Period
1,436.04 min
Inclination
11.6367°
Eccentricity
0.0042528
Mean motion
1.00275410 rev/d
Perigee alt
35,606.3 km
Apogee alt
35,964.9 km
Semi-major
42,163.7 km
B*
0.0000e+0
RAAN
19.2168°
Arg perigee
180.4437°
Mean anomaly
77.3732°
Rev number
3,379

§ Raw data

USA 157 (MILSTAR-2 2)1 26715U 01009A   26253.21612498  .00000096  00000+0  00000+0 0  99952 26715  11.6367  19.2168 0042528 180.4437  77.3732  1.00275410 33793

JSON: /api/v1/satellites/26715 · /tle

For live sub-satellite position, see the globe view (requires WebGL).

§ Visibility from observer

Set your observer location to see the next 7 days of passes ≥ 10°. The values pass through the URL so the page stays shareable.

No JS? Fill the form by hand. The geolocation button needs JavaScript.